• In Germany
  • List of Countries
  • For 7 days
  • Water Temperature
  • Satellite Maps
  • Weather Map
  • Weather Widgets
  • user-avatar
    Login

    Hourly Weather Kaprun

    Today, 26 March, Sunday

    Time Temperature Precipitation Wind Pressure Humidity
    00:00 -2°C° 0 mm 1 mps 595 mmHg 96%
    01:00 -3°C° 0 mm 1 mps 595 mmHg 96%
    02:00 -4°C° 0 mm 1 mps 594 mmHg 96%
    03:00 -6°C° 0 mm 1 mps 593 mmHg 96%
    04:00 -7°C° 0 mm 0 mps 592 mmHg 96%
    05:00 -6°C° 0 mm 1 mps 593 mmHg 95%
    06:00 -4°C° 0 mm 1 mps 594 mmHg 94%
    07:00 -3°C° 0 mm 1 mps 594 mmHg 93%
    08:00 -1°C° 0 mm 1 mps 595 mmHg 91%
    09:00 -1°C° 0 mm 2 mps 596 mmHg 89%
    10:00 +1°C° 0 mm 2 mps 597 mmHg 88%
    11:00 +1°C° 0.2 mm 2 mps 597 mmHg 88%
    12:00 +1°C° 0.2 mm 2 mps 597 mmHg 88%
    13:00 +1°C° 0.2 mm 2 mps 597 mmHg 88%
    14:00 -1°C° 0.2 mm 2 mps 597 mmHg 88%
    15:00 -1°C° 0.2 mm 2 mps 597 mmHg 88%
    16:00 -1°C° 0.2 mm 2 mps 597 mmHg 88%
    17:00 -2°C° 0.1 mm 2 mps 597 mmHg 91%
    18:00 -4°C° 0.1 mm 2 mps 597 mmHg 93%
    19:00 -3°C° 0.1 mm 1 mps 597 mmHg 96%
    20:00 -6°C° 0 mm 1 mps 596 mmHg 96%
    21:00 -7°C° 0 mm 1 mps 596 mmHg 97%
    22:00 -9°C° 0 mm 1 mps 596 mmHg 97%
    23:00 -9°C° 0 mm 1 mps 596 mmHg 96%

    Tomorrow, 27 March, Monday

    Time Temperature Precipitation Wind Pressure Humidity
    00:00 -9°C° 0 mm 1 mps 596 mmHg 96%
    01:00 -10°C° 0 mm 1 mps 595 mmHg 95%
    02:00 -10°C° 0 mm 1 mps 595 mmHg 94%
    03:00 -10°C° 0 mm 1 mps 595 mmHg 93%
    04:00 -10°C° 0 mm 1 mps 595 mmHg 92%
    05:00 -9°C° 0 mm 1 mps 596 mmHg 88%
    06:00 -7°C° 0 mm 1 mps 596 mmHg 83%
    07:00 -6°C° 0 mm 1 mps 597 mmHg 78%
    08:00 -2°C° 0 mm 1 mps 598 mmHg 73%
    09:00 +1°C° 0 mm 1 mps 600 mmHg 67%
    10:00 +3°C° 0 mm 1 mps 601 mmHg 61%
    11:00 +4°C° 0 mm 1 mps 601 mmHg 59%
    12:00 +5°C° 0 mm 1 mps 601 mmHg 57%
    13:00 +6°C° 0 mm 1 mps 601 mmHg 55%
    14:00 +6°C° 0 mm 1 mps 601 mmHg 58%
    15:00 +6°C° 0 mm 1 mps 601 mmHg 60%
    16:00 +5°C° 0 mm 1 mps 600 mmHg 62%
    17:00 +2°C° 0 mm 1 mps 599 mmHg 69%
    18:00 -1°C° 0 mm 1 mps 598 mmHg 76%
    19:00 -4°C° 0 mm 1 mps 597 mmHg 83%
    20:00 -4°C° 0 mm 1 mps 597 mmHg 82%
    21:00 -6°C° 0 mm 2 mps 597 mmHg 80%
    22:00 -6°C° 0 mm 2 mps 597 mmHg 79%
    23:00 -7°C° 0 mm 2 mps 597 mmHg 78%

    Day after tomorrow, 28 March, Tuesday

    Time Temperature Precipitation Wind Pressure Humidity
    00:00 -7°C° 0 mm 2 mps 597 mmHg 77%
    01:00 -7°C° 0 mm 2 mps 597 mmHg 76%
    02:00 -6°C° 0 mm 1 mps 597 mmHg 75%
    03:00 -7°C° 0 mm 1 mps 597 mmHg 74%
    04:00 -7°C° 0 mm 1 mps 596 mmHg 73%
    05:00 -6°C° 0 mm 1 mps 597 mmHg 71%
    06:00 -4°C° 0 mm 1 mps 597 mmHg 68%
    07:00 -4°C° 0 mm 1 mps 598 mmHg 66%
    08:00 -1°C° 0 mm 1 mps 599 mmHg 64%
    09:00 +2°C° 0 mm 1 mps 601 mmHg 63%
    10:00 +5°C° 0 mm 1 mps 602 mmHg 61%
    11:00 +6°C° 0 mm 1 mps 602 mmHg 61%
    12:00 +6°C° 0 mm 1 mps 602 mmHg 60%
    13:00 +7°C° 0 mm 1 mps 602 mmHg 60%
    14:00 +7°C° 0 mm 1 mps 602 mmHg 64%
    15:00 +6°C° 0 mm 1 mps 602 mmHg 67%
    16:00 +6°C° 0 mm 1 mps 601 mmHg 70%
    17:00 +3°C° 0 mm 1 mps 600 mmHg 79%
    18:00 0°C° 0 mm 1 mps 598 mmHg 87%
    19:00 -3°C° 0 mm 1 mps 597 mmHg 95%
    20:00 -4°C° 0 mm 1 mps 597 mmHg 95%
    21:00 -4°C° 0 mm 1 mps 597 mmHg 96%
    22:00 -4°C° 0 mm 1 mps 598 mmHg 97%
    23:00 -4°C° 0 mm 1 mps 598 mmHg 96%

    29 March, Wednesday

    Time Temperature Precipitation Wind Pressure Humidity
    00:00 -4°C° 0 mm 1 mps 598 mmHg 96%
    01:00 -4°C° 0 mm 1 mps 598 mmHg 96%
    02:00 -4°C° 0 mm 1 mps 598 mmHg 96%
    03:00 -3°C° 0 mm 1 mps 598 mmHg 95%
    04:00 -3°C° 0 mm 1 mps 598 mmHg 95%
    05:00 -2°C° 0 mm 1 mps 599 mmHg 94%
    06:00 -1°C° 0 mm 1 mps 599 mmHg 94%
    07:00 0°C° 0 mm 1 mps 600 mmHg 93%
    08:00 +2°C° 0 mm 1 mps 601 mmHg 85%
    09:00 +4°C° 0 mm 1 mps 602 mmHg 78%
    10:00 +6°C° 0 mm 1 mps 602 mmHg 70%
    11:00 +6°C° 0 mm 1 mps 602 mmHg 67%
    12:00 +7°C° 0 mm 1 mps 603 mmHg 64%
    13:00 +8°C° 0 mm 1 mps 603 mmHg 62%
    14:00 +8°C° 0 mm 1 mps 602 mmHg 63%
    15:00 +7°C° 0 mm 1 mps 602 mmHg 65%
    16:00 +7°C° 0 mm 1 mps 602 mmHg 67%
    17:00 +4°C° 0 mm 1 mps 600 mmHg 76%
    18:00 +1°C° 0 mm 1 mps 599 mmHg 85%
    19:00 -3°C° 0 mm 0 mps 597 mmHg 94%
    20:00 -3°C° 0 mm 0 mps 597 mmHg 94%
    21:00 -4°C° 0 mm 0 mps 597 mmHg 95%
    22:00 -4°C° 0 mm 0 mps 598 mmHg 95%
    23:00 -4°C° 0 mm 0 mps 598 mmHg 95%

    30 March, Thursday

    Time Temperature Precipitation Wind Pressure Humidity
    00:00 -4°C° 0 mm 0 mps 598 mmHg 95%
    01:00 -4°C° 0 mm 0 mps 598 mmHg 94%
    02:00 -4°C° 0 mm 0 mps 598 mmHg 94%
    03:00 -4°C° 0 mm 0 mps 597 mmHg 93%
    04:00 -3°C° 0 mm 1 mps 597 mmHg 93%
    05:00 -2°C° 0 mm 1 mps 598 mmHg 90%
    06:00 -1°C° 0 mm 1 mps 599 mmHg 88%
    07:00 0°C° 0 mm 1 mps 599 mmHg 85%
    08:00 +2°C° 0 mm 1 mps 600 mmHg 77%
    09:00 +5°C° 0 mm 1 mps 601 mmHg 69%
    10:00 +7°C° 0 mm 1 mps 602 mmHg 61%
    11:00 +8°C° 0 mm 1 mps 602 mmHg 58%
    12:00 +7°C° 0 mm 2 mps 602 mmHg 56%
    13:00 +8°C° 0 mm 2 mps 602 mmHg 53%
    14:00 +8°C° 0 mm 2 mps 602 mmHg 55%
    15:00 +8°C° 0 mm 2 mps 601 mmHg 57%
    16:00 +7°C° 0 mm 2 mps 601 mmHg 60%
    17:00 +5°C° 0 mm 2 mps 600 mmHg 70%
    18:00 +2°C° 0 mm 2 mps 598 mmHg 80%
    19:00 -2°C° 0 mm 2 mps 597 mmHg 90%
    20:00 -2°C° 0 mm 2 mps 597 mmHg 90%
    21:00 -2°C° 0 mm 2 mps 598 mmHg 90%
    22:00 -2°C° 0 mm 2 mps 598 mmHg 90%
    23:00 -2°C° 0 mm 2 mps 598 mmHg 90%

    31 March, Friday

    Time Temperature Precipitation Wind Pressure Humidity
    00:00 -3°C° 0 mm 2 mps 597 mmHg 90%
    01:00 -3°C° 0 mm 2 mps 597 mmHg 91%
    02:00 -3°C° 0 mm 2 mps 597 mmHg 91%
    03:00 -3°C° 0 mm 2 mps 597 mmHg 91%
    04:00 -4°C° 0 mm 2 mps 596 mmHg 91%
    05:00 -3°C° 0 mm 2 mps 597 mmHg 90%
    06:00 -3°C° 0 mm 2 mps 597 mmHg 88%
    07:00 -2°C° 0 mm 2 mps 597 mmHg 86%
    08:00 +1°C° 0 mm 2 mps 598 mmHg 77%
    09:00 +4°C° 0 mm 1 mps 598 mmHg 68%
    10:00 +6°C° 0 mm 1 mps 599 mmHg 59%
    11:00 +7°C° 0.1 mm 1 mps 599 mmHg 58%
    12:00 +6°C° 0.1 mm 2 mps 599 mmHg 56%
    13:00 +7°C° 0.1 mm 2 mps 598 mmHg 54%
    14:00 +6°C° 0.3 mm 2 mps 598 mmHg 59%
    15:00 +6°C° 0.3 mm 2 mps 597 mmHg 63%
    16:00 +5°C° 0.3 mm 2 mps 596 mmHg 67%
    17:00 +3°C° 0.1 mm 2 mps 595 mmHg 76%
    18:00 +1°C° 0.1 mm 2 mps 594 mmHg 84%
    19:00 -2°C° 0.1 mm 2 mps 594 mmHg 92%
    20:00 -2°C° 0 mm 2 mps 594 mmHg 92%
    21:00 -2°C° 0 mm 3 mps 593 mmHg 92%
    22:00 -2°C° 0 mm 3 mps 593 mmHg 92%
    23:00 -2°C° 0 mm 3 mps 593 mmHg 92%
    Show more